Home > Time Zones > World Clock > Weather > Spain > Cadiz > Past weeks

Flag Weather past 2 weeks in Cadiz, Cádiz, Spain

Now
59 °F

Clear.


Feels Like: 59 °F
Forecast: 56 / 66 °F
Wind: No wind

Location: Rota Airport

Current Time: Nov 24, 2014 at 10:56:10 PM

Latest Report: Nov 24, 2014 at 10:00 PM


Visibility: 10 mi

Pressure: 30.07 "Hg

Humidity: 94%

Dew point: 57 °F

Location of CadizLocation

Historic Weather in Cadiz — Graph

°F

Cadiz temperature yesterday

Maximum temperature yesterday: 70 °F (at 12:00 PM)
Minimum temperature yesterday: 59 °F (at 1:00 AM)
Average temperature yesterday: 65 °F

Past Weeks' High & Low Weather Summary

 TemperatureHumidityPressure
High75 °F (Nov 22, 3:00 PM)100% (Nov 11, 6:00 AM)30.09 "Hg (Nov 11, 6:00 AM)
Low45 °F (Nov 18, 7:00 AM)41% (Nov 22, 4:00 PM)29.65 "Hg (Nov 22, 4:00 PM)
Average62 °F81%29.90 "Hg
* Reported Nov 9 9:00 PM — Nov 24 9:00 PM, Cadiz, Weather by CustomWeather, © 2014

Note: Actual official high and low records may vary slightly from our data, if they occured in-between our weather recording intervals... More about our weather records

Advertising

Cadiz weather history for previous 24 hours

 ConditionsComfort  
Time TempWeatherWind HumidityBarometerVisibility
9:00 PM
Nov 24
61 °FPassing clouds.No wind88%30.07 "HgN/A
8:00 PM61 °FPassing clouds.No wind88%30.04 "HgN/A
7:00 PM63 °FPassing clouds.No wind83%30.04 "HgN/A
6:00 PM66 °FScattered clouds.5 mph73%30.04 "HgN/A
5:00 PM66 °FScattered clouds.2 mph73%30.01 "HgN/A
4:00 PM66 °FScattered clouds.7 mph73%30.01 "HgN/A
3:00 PM66 °FScattered clouds.7 mph73%29.98 "HgN/A
2:00 PM66 °FPassing clouds.7 mph73%29.98 "HgN/A
1:00 PM66 °FPassing clouds.9 mph78%29.98 "HgN/A
12:00 PM66 °FPassing clouds.10 mph78%29.98 "HgN/A
11:00 AM64 °FScattered clouds.7 mph83%29.98 "HgN/A
10:00 AM63 °FScattered showers. Broken clouds.10 mph88%29.95 "HgN/A
9:00 AM63 °FScattered showers. Broken clouds.13 mph88%29.92 "HgN/A
8:00 AM61 °FLight rain. Passing clouds.6 mph94%29.92 "Hg6 mi
7:00 AM63 °FPartly cloudy.6 mph94%29.89 "HgN/A
5:00 AM63 °FPassing clouds.14 mph94%29.83 "HgN/A
4:00 AM63 °FPassing clouds.21 mph88%29.80 "HgN/A
3:00 AM63 °FPassing clouds.21 mph83%29.80 "HgN/A
2:00 AM61 °FThunderstorms. Passing clouds.26 mph88%29.77 "Hg3 mi
1:00 AM61 °FThunderstorms. Passing clouds.13 mph88%29.80 "Hg6 mi
12:00 AM61 °FThunderstorms. Passing clouds.12 mph88%29.80 "HgN/A
11:00 PM
Nov 23
61 °FPassing clouds.12 mph94%29.80 "HgN/A
10:00 PM63 °FPassing clouds.12 mph88%29.80 "HgN/A
Weather by CustomWeather, © 2014

See weather overviewHow to use our weather pages